Time,TemperatureF,DewpointF,PressureIn,WindDirection,WindDirectionDegrees,WindSpeedMPH,WindSpeedGustMPH,Humidity,HourlyPrecipIn,Conditions,Clouds,dailyrainin,SoftwareType,DateUTC
2013-10-23 00:05:00,35.7,33.0,30.11,NE,49,0.0,0.0,89,0.00,,,0.00,weatherlink.com 1.10,2013-10-23 06:05:00,
2013-10-23 00:20:00,34.9,32.0,30.11,NE,49,0.0,0.0,89,0.00,,,0.00,weatherlink.com 1.10,2013-10-23 06:20:00,
2013-10-23 00:35:00,34.3,32.0,30.11,NE,49,0.0,0.0,90,0.00,,,0.00,weatherlink.com 1.10,2013-10-23 06:35:00,
2013-10-23 00:50:00,33.5,31.0,30.11,NE,49,0.0,0.0,91,0.00,,,0.00,weatherlink.com 1.10,2013-10-23 06:50:00,
2013-10-23 01:05:00,33.3,32.0,30.11,NE,49,0.0,0.0,93,0.00,,,0.00,weatherlink.com 1.10,2013-10-23 07:05:00,
2013-10-23 01:20:00,32.7,31.0,30.11,NE,49,0.0,0.0,92,0.00,,,0.00,weatherlink.com 1.10,2013-10-23 07:20:00,
2013-10-23 01:35:00,31.9,30.0,30.12,NE,49,0.0,0.0,92,0.00,,,0.00,weatherlink.com 1.10,2013-10-23 07:35:00,
2013-10-23 01:50:00,32.0,31.0,30.12,NE,49,0.0,0.0,94,0.00,,,0.00,weatherlink.com 1.10,2013-10-23 07:50:00,
2013-10-23 02:05:00,31.9,30.0,30.12,NE,49,0.0,0.0,94,0.00,,,0.00,weatherlink.com 1.10,2013-10-23 08:05:00,
2013-10-23 02:20:00,31.0,29.0,30.12,NE,49,0.0,0.0,93,0.00,,,0.00,weatherlink.com 1.10,2013-10-23 08:20:00,
2013-10-23 02:35:00,31.7,31.0,30.12,NE,49,0.0,0.0,95,0.00,,,0.00,weatherlink.com 1.10,2013-10-23 08:35:00,
2013-10-23 02:50:00,30.9,29.0,30.13,NE,49,0.0,0.0,93,0.00,,,0.00,weatherlink.com 1.10,2013-10-23 08:50:00,
2013-10-23 03:05:00,29.9,28.0,30.13,NE,49,0.0,0.0,93,0.00,,,0.00,weatherlink.com 1.10,2013-10-23 09:05:00,
2013-10-23 03:20:00,29.7,28.0,30.13,NE,49,0.0,0.0,94,0.00,,,0.00,weatherlink.com 1.10,2013-10-23 09:20:00,
2013-10-23 03:35:00,30.8,30.0,30.13,NE,49,0.0,0.0,95,0.00,,,0.00,weatherlink.com 1.10,2013-10-23 09:35:00,
2013-10-23 03:50:00,31.2,30.0,30.13,NE,49,0.0,0.0,95,0.00,,,0.00,weatherlink.com 1.10,2013-10-23 09:50:00,
2013-10-23 04:05:00,29.9,28.0,30.13,NE,49,0.0,0.0,93,0.00,,,0.00,weatherlink.com 1.10,2013-10-23 10:05:00,
2013-10-23 04:20:00,29.3,28.0,30.13,NE,49,0.0,0.0,94,0.00,,,0.00,weatherlink.com 1.10,2013-10-23 10:20:00,
2013-10-23 04:35:00,29.0,28.0,30.13,NE,49,0.0,0.0,94,0.00,,,0.00,weatherlink.com 1.10,2013-10-23 10:35:00,
2013-10-23 04:50:00,28.7,27.0,30.13,NE,49,0.0,0.0,94,0.00,,,0.00,weatherlink.com 1.10,2013-10-23 10:50:00,
2013-10-23 05:05:00,28.3,27.0,30.13,NE,49,0.0,0.0,94,0.00,,,0.00,weatherlink.com 1.10,2013-10-23 11:05:00,
2013-10-23 05:20:00,27.9,26.0,30.13,NE,49,0.0,0.0,94,0.00,,,0.00,weatherlink.com 1.10,2013-10-23 11:20:00,
2013-10-23 05:35:00,27.9,27.0,30.14,NE,49,0.0,0.0,95,0.00,,,0.00,weatherlink.com 1.10,2013-10-23 11:35:00,
2013-10-23 05:51:00,28.5,27.0,30.14,NE,49,0.0,0.0,95,0.00,,,0.00,weatherlink.com 1.10,2013-10-23 11:51:00,
2013-10-23 06:06:00,27.7,26.0,30.14,NE,49,0.0,0.0,94,0.00,,,0.00,weatherlink.com 1.10,2013-10-23 12:06:00,
2013-10-23 06:21:00,27.2,26.0,30.14,NE,49,0.0,0.0,95,0.00,,,0.00,weatherlink.com 1.10,2013-10-23 12:21:00,
2013-10-23 06:36:00,27.4,26.0,30.14,NE,49,0.0,0.0,95,0.00,,,0.00,weatherlink.com 1.10,2013-10-23 12:36:00,
2013-10-23 06:51:00,27.3,26.0,30.14,NE,49,0.0,0.0,95,0.00,,,0.00,weatherlink.com 1.10,2013-10-23 12:51:00,
2013-10-23 07:06:00,27.1,26.0,30.15,NE,49,0.0,0.0,95,0.00,,,0.00,weatherlink.com 1.10,2013-10-23 13:06:00,
2013-10-23 07:21:00,26.6,25.0,30.15,NE,49,0.0,0.0,94,0.00,,,0.00,weatherlink.com 1.10,2013-10-23 13:21:00,
2013-10-23 07:36:00,27.2,26.0,30.15,NE,49,0.0,0.0,95,0.00,,,0.00,weatherlink.com 1.10,2013-10-23 13:36:00,
2013-10-23 07:51:00,27.0,26.0,30.15,NE,49,0.0,0.0,95,0.00,,,0.00,weatherlink.com 1.10,2013-10-23 13:51:00,
2013-10-23 08:06:00,26.4,25.0,30.15,NE,49,0.0,0.0,94,0.00,,,0.00,weatherlink.com 1.10,2013-10-23 14:06:00,
2013-10-23 08:21:00,25.8,24.0,30.16,NE,49,0.0,0.0,94,0.00,,,0.00,weatherlink.com 1.10,2013-10-23 14:21:00,
2013-10-23 08:36:00,25.6,24.0,30.16,NE,49,0.0,0.0,94,0.00,,,0.00,weatherlink.com 1.10,2013-10-23 14:36:00,
2013-10-23 08:51:00,25.6,24.0,30.16,NE,49,0.0,0.0,95,0.00,,,0.00,weatherlink.com 1.10,2013-10-23 14:51:00,
2013-10-23 09:06:00,-999.0,-99.9,30.16,North,-999,-999.0,-999.0,-999,0.00,,,0.00,weatherlink.com 1.10,2013-10-23 15:06:00,
2013-10-23 09:21:00,-999.0,-99.9,30.16,North,-999,-999.0,-999.0,-999,0.00,,,0.00,weatherlink.com 1.10,2013-10-23 15:21:00,
2013-10-23 09:36:00,-999.0,-99.9,30.16,North,-999,-999.0,-999.0,-999,0.00,,,0.00,weatherlink.com 1.10,2013-10-23 15:36:00,
2013-10-23 09:51:00,-999.0,-99.9,30.16,North,-999,-999.0,-999.0,-999,0.00,,,0.00,weatherlink.com 1.10,2013-10-23 15:51:00,
2013-10-23 10:06:00,32.7,32.0,30.16,NE,49,0.0,0.0,95,0.00,,,0.00,weatherlink.com 1.10,2013-10-23 16:06:00,
2013-10-23 10:21:00,34.9,33.0,30.16,NE,49,0.0,0.0,94,0.00,,,0.00,weatherlink.com 1.10,2013-10-23 16:21:00,
2013-10-23 10:36:00,36.5,34.0,30.16,NE,49,0.0,0.0,90,0.00,,,0.00,weatherlink.com 1.10,2013-10-23 16:36:00,
2013-10-23 10:51:00,36.9,34.0,30.16,NE,49,0.0,0.0,89,0.00,,,0.00,weatherlink.com 1.10,2013-10-23 16:51:00,
2013-10-23 11:06:00,38.7,35.0,30.16,NE,49,0.0,1.0,87,0.00,,,0.00,weatherlink.com 1.10,2013-10-23 17:06:00,
2013-10-23 11:21:00,40.1,35.0,30.16,NNW,333,0.0,3.0,82,0.00,,,0.00,weatherlink.com 1.10,2013-10-23 17:21:00,
2013-10-23 11:37:00,41.8,36.0,30.16,NNW,333,0.0,4.0,80,0.00,,,0.00,weatherlink.com 1.10,2013-10-23 17:37:00,
2013-10-23 11:52:00,44.1,36.0,30.15,NNW,333,2.0,3.0,72,0.00,,,0.00,weatherlink.com 1.10,2013-10-23 17:52:00,
2013-10-23 12:07:00,46.0,36.0,30.15,West,271,2.0,4.0,68,0.00,,,0.00,weatherlink.com 1.10,2013-10-23 18:07:00,
2013-10-23 12:22:00,48.0,36.0,30.15,West,275,3.0,4.0,64,0.00,,,0.00,weatherlink.com 1.10,2013-10-23 18:22:00,
2013-10-23 12:37:00,49.1,35.0,30.14,North,9,1.0,3.0,59,0.00,,,0.00,weatherlink.com 1.10,2013-10-23 18:37:00,
2013-10-23 12:52:00,50.7,34.0,30.13,WNW,298,1.0,4.0,54,0.00,,,0.00,weatherlink.com 1.10,2013-10-23 18:52:00,
2013-10-23 13:07:00,52.3,35.0,30.12,West,269,0.0,2.0,53,0.00,,,0.00,weatherlink.com 1.10,2013-10-23 19:07:00,
2013-10-23 13:22:00,53.7,35.0,30.12,NNE,16,1.0,4.0,49,0.00,,,0.00,weatherlink.com 1.10,2013-10-23 19:22:00,
2013-10-23 13:37:00,54.9,34.0,30.11,North,5,6.0,6.0,46,0.00,,,0.00,weatherlink.com 1.10,2013-10-23 19:37:00,
2013-10-23 13:52:00,54.8,35.0,30.11,NW,325,7.0,8.0,47,0.00,,,0.00,weatherlink.com 1.10,2013-10-23 19:52:00,
2013-10-23 14:07:00,56.9,36.0,30.10,WNW,299,2.0,7.0,46,0.00,,,0.00,weatherlink.com 1.10,2013-10-23 20:07:00,
2013-10-23 14:22:00,57.5,36.0,30.09,WNW,284,4.0,6.0,44,0.00,,,0.00,weatherlink.com 1.10,2013-10-23 20:22:00,
2013-10-23 14:37:00,57.5,36.0,30.09,North,355,1.0,6.0,45,0.00,,,0.00,weatherlink.com 1.10,2013-10-23 20:37:00,
2013-10-23 14:52:00,58.5,35.0,30.08,WNW,285,3.0,7.0,42,0.00,,,0.00,weatherlink.com 1.10,2013-10-23 20:52:00,
2013-10-23 15:07:00,59.8,36.0,30.07,West,273,0.0,6.0,42,0.00,,,0.00,weatherlink.com 1.10,2013-10-23 21:07:00,
2013-10-23 15:22:00,60.4,36.0,30.07,NW,306,1.0,7.0,41,0.00,,,0.00,weatherlink.com 1.10,2013-10-23 21:22:00,
2013-10-23 15:37:00,61.2,37.0,30.07,West,263,5.0,5.0,40,0.00,,,0.00,weatherlink.com 1.10,2013-10-23 21:37:00,
2013-10-23 15:52:00,61.4,36.0,30.06,West,278,2.0,5.0,39,0.00,,,0.00,weatherlink.com 1.10,2013-10-23 21:52:00,
2013-10-23 16:08:00,61.2,36.0,30.06,NW,323,0.0,6.0,39,0.00,,,0.00,weatherlink.com 1.10,2013-10-23 22:08:00,
2013-10-23 16:23:00,61.4,36.0,30.05,NW,306,0.0,4.0,39,0.00,,,0.00,weatherlink.com 1.10,2013-10-23 22:23:00,
2013-10-23 16:38:00,62.7,37.0,30.05,NW,304,0.0,5.0,38,0.00,,,0.00,weatherlink.com 1.10,2013-10-23 22:38:00,
2013-10-23 16:53:00,63.1,36.0,30.04,NW,312,0.0,3.0,36,0.00,,,0.00,weatherlink.com 1.10,2013-10-23 22:53:00,
2013-10-23 17:08:00,64.4,37.0,30.04,WNW,301,0.0,2.0,36,0.00,,,0.00,weatherlink.com 1.10,2013-10-23 23:08:00,
2013-10-23 17:23:00,63.9,36.0,30.04,WNW,301,0.0,3.0,36,0.00,,,0.00,weatherlink.com 1.10,2013-10-23 23:23:00,
2013-10-23 17:38:00,62.9,37.0,30.04,WNW,299,0.0,3.0,38,0.00,,,0.00,weatherlink.com 1.10,2013-10-23 23:38:00,
2013-10-23 17:53:00,61.2,37.0,30.04,WNW,296,0.0,0.0,41,0.00,,,0.00,weatherlink.com 1.10,2013-10-23 23:53:00,
2013-10-23 18:08:00,58.2,36.0,30.04,WNW,296,0.0,0.0,44,0.00,,,0.00,weatherlink.com 1.10,2013-10-24 00:08:00,
2013-10-23 18:23:00,55.7,36.0,30.04,WNW,296,0.0,0.0,48,0.00,,,0.00,weatherlink.com 1.10,2013-10-24 00:23:00,
2013-10-23 18:38:00,53.7,36.0,30.04,WNW,296,0.0,0.0,51,0.00,,,0.00,weatherlink.com 1.10,2013-10-24 00:38:00,
2013-10-23 18:53:00,51.2,35.0,30.05,WNW,296,0.0,3.0,55,0.00,,,0.00,weatherlink.com 1.10,2013-10-24 00:53:00,
2013-10-23 19:08:00,49.4,35.0,30.05,WNW,296,1.0,1.0,59,0.00,,,0.00,weatherlink.com 1.10,2013-10-24 01:08:00,
2013-10-23 19:23:00,48.3,35.0,30.06,WNW,296,0.0,1.0,61,0.00,,,0.00,weatherlink.com 1.10,2013-10-24 01:23:00,
2013-10-23 19:38:00,47.0,35.0,30.06,WNW,296,0.0,0.0,63,0.00,,,0.00,weatherlink.com 1.10,2013-10-24 01:38:00,
2013-10-23 19:53:00,45.2,35.0,30.06,WNW,296,0.0,0.0,68,0.00,,,0.00,weatherlink.com 1.10,2013-10-24 01:53:00,
2013-10-23 20:08:00,44.4,35.0,30.06,WNW,296,0.0,0.0,69,0.00,,,0.00,weatherlink.com 1.10,2013-10-24 02:08:00,
2013-10-23 20:23:00,43.6,34.0,30.07,WNW,296,0.0,0.0,69,0.00,,,0.00,weatherlink.com 1.10,2013-10-24 02:23:00,
2013-10-23 20:38:00,42.5,34.0,30.07,WNW,296,0.0,0.0,72,0.00,,,0.00,weatherlink.com 1.10,2013-10-24 02:38:00,
2013-10-23 20:53:00,41.6,34.0,30.07,WNW,296,0.0,0.0,74,0.00,,,0.00,weatherlink.com 1.10,2013-10-24 02:53:00,
2013-10-23 21:08:00,40.7,35.0,30.07,WNW,296,0.0,0.0,79,0.00,,,0.00,weatherlink.com 1.10,2013-10-24 03:08:00,
2013-10-23 21:23:00,40.0,35.0,30.08,WNW,296,0.0,0.0,81,0.00,,,0.00,weatherlink.com 1.10,2013-10-24 03:23:00,
2013-10-23 21:38:00,38.8,34.0,30.08,WNW,296,0.0,0.0,83,0.00,,,0.00,weatherlink.com 1.10,2013-10-24 03:38:00,
2013-10-23 21:53:00,38.6,34.0,30.08,WNW,296,0.0,0.0,84,0.00,,,0.00,weatherlink.com 1.10,2013-10-24 03:53:00,
2013-10-23 22:08:00,38.8,34.0,30.09,WNW,297,2.0,2.0,83,0.00,,,0.00,weatherlink.com 1.10,2013-10-24 04:08:00,
2013-10-23 22:23:00,38.2,33.0,30.09,WNW,297,0.0,0.0,81,0.00,,,0.00,weatherlink.com 1.10,2013-10-24 04:23:00,
2013-10-23 22:38:00,37.3,33.0,30.09,WNW,297,0.0,2.0,83,0.00,,,0.00,weatherlink.com 1.10,2013-10-24 04:38:00,
2013-10-23 22:53:00,37.7,33.0,30.10,WNW,297,0.0,0.0,82,0.00,,,0.00,weatherlink.com 1.10,2013-10-24 04:53:00,
2013-10-23 23:08:00,36.5,32.0,30.10,WNW,297,0.0,0.0,84,0.00,,,0.00,weatherlink.com 1.10,2013-10-24 05:08:00,
2013-10-23 23:23:00,35.4,32.0,30.11,WNW,297,0.0,0.0,87,0.00,,,0.00,weatherlink.com 1.10,2013-10-24 05:23:00,
2013-10-23 23:38:00,36.0,32.0,30.11,WNW,297,0.0,0.0,86,0.00,,,0.00,weatherlink.com 1.10,2013-10-24 05:38:00,
2013-10-23 23:53:00,34.8,31.0,30.11,WNW,297,0.0,0.0,86,0.00,,,0.00,weatherlink.com 1.10,2013-10-24 05:53:00,